Location: Marsån
(66.4167°N, 22.2833°E)
Time: 09:36:28
(UTC+00:00)

Cosmos 1634 Rocket - Pass Details

Date: 24 February 2024
Orbit: 960 x 991 km, 82.9° (Epoch: 15 April)

Event Time Altitude Azimuth Distance (km) Brightness Sun altitude
Rises 17:46:51 0° 159° (SSE) 3,666 6.7 -14.9°
Reaches altitude 10° 17:49:30 10° 152° (SSE) 2,718 6.0 -15.2°
Maximum altitude 17:55:10 39° 86° (E) 1,423 4.4 -15.7°
Drops below altitude 10° 18:00:50 10° 20° (NNE) 2,715 6.3 -16.3°
Sets 18:03:29 0° 14° (NNE) 3,663 7.0 -16.5°
